Flag for Turkey Weather past 2 weeks in Bursa, Turkey

Now
79 °F

Clear.


Feels Like: 81 °F
Forecast: 62 / 96 °F
Wind: 2 mph from East

Location: Bursa

Current Time: Aug 21, 2014 at 11:24:19 PM

Latest Report: Aug 21, 2014 at 9:00 PM


Visibility: 13 mi

Pressure: 29.96 "Hg

Humidity: 61%

Dew point: 64 °F

Location of BursaLocation

Historic Weather in Bursa — Graph

°F

Bursa temperature yesterday

Maximum temperature yesterday: 89 °F (at 4:00 PM)
Minimum temperature yesterday: 65 °F (at 6:00 AM)
Average temperature yesterday: 79 °F

Past Weeks' High & Low Weather Summary

 TemperatureHumidityPressure
High97 °F (Aug 16, 4:00 PM)99% (Aug 18, 9:00 PM)30.03 "Hg (Aug 18, 9:00 PM)
Low64 °F (Aug 8, 6:00 AM)32% (Aug 16, 4:00 PM)29.63 "Hg (Aug 17, 5:00 PM)
Average79 °F66%29.87 "Hg
* Reported Aug 6 9:00 PM — Aug 21 9:00 PM, Bursa, Weather by CustomWeather, © 2014

Note: Actual official high and low records may vary slightly from our data, if they occured in-between our weather recording intervals... More about our weather records

Advertising

Bursa weather history for previous 24 hours

 ConditionsComfort  
Time TempWeatherWind HumidityBarometerVisibility
9:00 PM
Aug 21
79 °FClear.2 mph61%29.96 "Hg12 mi
8:00 PM82 °FClear.3 mph55%29.94 "Hg12 mi
7:00 PM87 °FSunny.3 mph38%29.95 "Hg12 mi
6:00 PM89 °FSunny.3 mph36%29.96 "Hg12 mi
5:00 PM89 °FSunny.6 mph39%29.96 "Hg12 mi
4:00 PM88 °FSunny.7 mph50%29.98 "Hg12 mi
3:00 PM88 °FSunny.5 mph51%29.98 "Hg12 mi
2:00 PM88 °FPassing clouds.3 mph45%29.99 "Hg12 mi
1:00 PM85 °FPassing clouds.3 mph51%30.00 "Hg12 mi
12:00 PM83 °FPassing clouds.2 mph60%30.01 "Hg12 mi
11:00 AM79 °FPassing clouds.2 mph65%30.02 "Hg12 mi
10:00 AM77 °FSunny.2 mph69%30.02 "Hg12 mi
9:00 AM74 °FSunny.1 mph75%30.01 "Hg9 mi
6:00 AM66 °FPassing clouds.No wind92%30.00 "Hg9 mi
3:00 AM68 °FClear.1 mph93%30.00 "Hg9 mi
12:00 AM72 °FClear.1 mph89%29.99 "Hg12 mi
Weather by CustomWeather, © 2014

See weather overviewHow to use our weather pages